Location: ??????
(55.7522°N, 37.6156°E)
Time: 12:49:32
(UTC+00:00)

USA 229 DEB - Pass Details

Date: 22 December 2025
Orbit: 844 x 1364 km, 63.4° (Epoch: 10 January)

Event Time Altitude Azimuth Distance (km) Brightness Sun altitude
Exits shadow 03:41:49 22° 264° (W) 2,447 5.0 -17.3°
Maximum altitude 03:43:18 23° 248° (WSW) 2,408 5.1 -17.1°
Drops below altitude 10° 03:49:15 10° 201° (SSW) 3,346 6.3 -16.3°
Sets 03:52:52 0° 188° (S) 4,357 7.0 -15.8°
